"startDT [UTC]","vpos","CH4 [ppm]","stdev(CH4) [ppm]","CO2 [ppm]","stdev(CO2) [ppm]","H2O_reported [%]","stdev(H2O_reported)","CavityPressure [torr]","CavityTemp [C]","OutletValve","CH4_dry [ppm]","CO2_dry [ppm]","DasTemp [C]","EtalonTemp [C]","WarmBoxTemp [C]","MPVPosition","T_ECpre [C]","T_EC1 [C]","T_EC2 [C]","p_inlet [hPa]","p_in [hPa]","p_out [hPa]","T_inlet [C]","RH_inlet [%]","dwpt_inlet [C]","T_vent [C]","RH_vent [%]","dwpt_vent [C]","flow_vent [l min-1]","flow_inlet [l min-1]","dwpt_sample [C]","T_room [C]"
2015-12-05 00:00:00,0.0,1.96234,0.00047,407.323,0.058,0.0908,0.0014,139.998,44.999,31687.00053,1.96412,407.767,33.773,45.069,45.000,0.00,0.09,-272.74,-272.81,-8,525,-947,21.4,2.9,-26.0,21.5,3.0,-25.5,5.73,2.02,-12.1,26.6
2015-12-05 00:01:00,0.0,1.96220,0.00036,407.393,0.037,0.0906,0.0019,139.997,44.999,31687.21258,1.96394,407.837,33.750,45.069,45.000,0.00,0.09,-272.76,-272.80,-8,525,-947,21.4,2.9,-26.0,21.5,3.0,-25.5,5.73,2.12,-12.1,26.7
2015-12-05 00:02:00,0.0,1.96227,0.00037,407.478,0.043,0.0903,0.0019,139.999,44.999,31685.95745,1.96403,407.920,33.761,45.070,45.001,0.00,0.09,-272.76,-272.81,-8,525,-947,21.4,2.9,-26.0,21.5,3.0,-25.6,5.73,2.28,-12.1,26.8
2015-12-05 00:03:00,0.0,1.96237,0.00030,407.515,0.027,0.0910,0.0015,140.001,45.000,31688.13128,1.96413,407.960,33.835,45.070,45.001,0.00,0.09,-272.75,-272.81,-7,524,-947,21.4,2.8,-26.1,21.5,3.0,-25.6,5.73,2.24,-12.1,26.8
2015-12-05 00:04:00,0.0,1.96211,0.00038,407.520,0.041,0.0904,0.0016,139.997,45.000,31690.95243,1.96385,407.964,33.896,45.071,45.001,0.00,0.09,-272.74,-272.82,-8,524,-947,21.5,2.9,-25.9,21.6,3.0,-25.6,5.73,2.02,-12.1,26.8
2015-12-05 00:05:00,0.0,1.96172,0.00041,407.508,0.042,0.0910,0.0021,139.996,45.001,31692.85504,1.96349,407.954,33.950,45.070,45.001,0.00,0.09,-272.75,-272.82,-8,524,-947,21.5,2.9,-26.0,21.6,3.0,-25.6,5.73,2.01,-12.1,26.8
2015-12-05 00:06:00,0.0,1.96114,0.00040,407.554,0.045,0.0908,0.0020,139.997,45.001,31695.86846,1.96291,407.998,34.000,45.070,45.001,0.00,0.09,-272.76,-272.80,-9,525,-947,21.5,2.8,-26.0,21.6,3.0,-25.5,5.73,2.21,-12.1,26.9
2015-12-05 00:07:00,0.0,1.96105,0.00041,407.602,0.047,0.0890,0.0019,140.000,45.001,31699.50424,1.96276,408.040,34.004,45.070,45.000,0.00,0.09,-272.75,-272.80,-8,525,-947,21.6,2.8,-26.1,21.6,2.9,-25.6,5.73,2.29,-12.1,26.9
2015-12-05 00:08:00,0.0,1.96108,0.00025,407.660,0.076,0.0893,0.0015,139.998,45.001,31699.26293,1.96282,408.094,34.038,45.070,45.000,0.00,0.09,-272.75,-272.82,-8,525,-947,21.6,2.8,-26.1,21.7,2.9,-25.7,5.73,2.15,-12.1,26.9
2015-12-05 00:09:00,0.0,1.96074,0.00039,407.826,0.028,0.0889,0.0020,139.999,45.001,31701.26350,1.96247,408.262,34.065,45.069,45.000,0.00,0.09,-272.74,-272.82,-7,525,-947,21.6,2.8,-26.2,21.7,2.9,-25.7,5.73,1.99,-12.1,26.9
2015-12-05 00:10:00,0.0,1.96069,0.00030,407.848,0.036,0.0883,0.0015,139.998,45.000,31701.61937,1.96241,408.280,34.081,45.069,45.000,0.00,0.09,-272.76,-272.79,-8,525,-947,21.6,2.8,-26.2,21.7,2.9,-25.7,5.73,2.06,-12.1,27.0
2015-12-05 00:11:00,0.0,1.96038,0.00042,407.874,0.041,0.0883,0.0016,139.999,45.000,31702.10168,1.96207,408.307,34.120,45.069,45.000,0.00,0.09,-272.77,-272.80,-8,525,-947,21.6,2.8,-26.2,21.7,2.9,-25.7,5.73,2.24,-12.1,27.0
2015-12-05 00:12:00,0.0,1.96043,0.00038,407.845,0.072,0.0887,0.0014,139.998,45.000,31701.67698,1.96217,408.284,34.125,45.069,45.000,0.00,0.09,-272.75,-272.81,-8,525,-948,21.6,2.8,-26.2,21.7,2.9,-25.8,5.73,2.28,-12.1,27.0
2015-12-05 00:13:00,0.0,1.95966,0.00043,407.753,0.095,0.0885,0.0014,139.997,45.000,31703.36922,1.96137,408.185,34.126,45.069,45.000,0.00,0.09,-272.74,-272.82,-9,525,-947,21.6,2.8,-26.2,21.7,2.9,-25.8,5.73,2.10,-12.1,27.0
2015-12-05 00:14:00,0.0,1.95926,0.00046,407.628,0.155,0.0883,0.0012,139.998,45.000,31705.64932,1.96096,408.062,34.141,45.069,45.000,0.00,0.09,-272.74,-272.81,-8,525,-948,21.6,2.8,-26.2,21.7,2.9,-25.8,5.73,1.98,-12.1,27.1
2015-12-05 00:15:00,0.0,1.95941,0.00042,407.732,0.065,0.0886,0.0016,139.998,45.000,31705.78689,1.96111,408.169,34.179,45.069,45.000,0.00,0.09,-272.75,-272.80,-8,525,-948,21.6,2.8,-26.2,21.7,2.9,-25.8,5.73,2.09,-12.1,27.1
2015-12-05 00:16:00,0.0,1.95907,0.00041,407.685,0.070,0.0893,0.0018,140.000,45.000,31706.08704,1.96083,408.122,34.179,45.069,45.000,0.00,0.09,-272.75,-272.80,-8,525,-948,21.6,2.8,-26.2,21.7,2.9,-25.7,5.73,2.26,-12.1,27.0
2015-12-05 00:17:00,0.0,1.95900,0.00041,407.673,0.077,0.0887,0.0016,139.998,45.000,31704.89630,1.96069,408.106,34.167,45.069,45.000,0.00,0.09,-272.74,-272.81,-8,525,-948,21.6,2.8,-26.2,21.7,2.9,-25.7,5.73,2.26,-12.1,27.0
2015-12-05 00:18:00,0.0,1.95872,0.00041,407.613,0.075,0.0889,0.0021,140.003,45.000,31705.57327,1.96046,408.051,34.153,45.069,45.000,0.00,0.09,-272.75,-272.82,-8,525,-948,21.6,2.8,-26.2,21.7,2.9,-25.7,5.73,2.11,-12.1,27.0
2015-12-05 00:19:00,0.0,1.95910,0.00048,407.774,0.062,0.0882,0.0013,139.998,45.000,31704.67007,1.96078,408.206,34.140,45.069,45.000,0.00,0.09,-272.75,-272.82,-9,525,-948,21.6,2.8,-26.3,21.7,2.9,-25.8,5.73,1.99,-12.1,27.0
2015-12-05 00:20:00,0.0,1.95910,0.00054,407.748,0.063,0.0869,0.0018,139.998,45.000,31704.60937,1.96077,408.174,34.125,45.070,45.000,0.00,0.09,-272.75,-272.80,-9,525,-948,21.5,2.8,-26.4,21.7,2.9,-25.9,5.73,2.07,-12.1,27.0
2015-12-05 00:21:00,0.0,1.95952,0.00052,407.833,0.065,0.0872,0.0019,140.001,45.000,31704.59979,1.96121,408.260,34.125,45.070,45.000,0.00,0.09,-272.76,-272.81,-8,525,-947,21.6,2.8,-26.4,21.7,2.9,-25.9,5.73,2.25,-12.1,27.0
2015-12-05 00:22:00,0.0,1.95991,0.00033,407.887,0.039,0.0877,0.0019,139.999,45.000,31704.16085,1.96159,408.316,34.123,45.070,45.000,0.00,0.09,-272.76,-272.82,-8,525,-947,21.6,2.8,-26.4,21.7,2.8,-25.9,5.73,2.26,-12.1,27.0
2015-12-05 00:23:00,0.0,1.95947,0.00040,407.916,0.054,0.0871,0.0018,139.999,45.000,31704.26699,1.96117,408.345,34.098,45.070,45.000,0.00,0.09,-272.74,-272.81,-8,525,-947,21.5,2.7,-26.4,21.7,2.8,-25.9,5.73,2.12,-12.1,27.0
2015-12-05 00:24:00,0.0,1.95872,0.00057,407.631,0.161,0.0874,0.0018,139.997,45.000,31701.78366,1.96042,408.060,34.074,45.070,45.000,0.00,0.09,-272.74,-272.81,-7,525,-947,21.5,2.8,-26.4,21.7,2.9,-25.9,5.73,1.99,-12.1,27.0
2015-12-05 00:25:00,0.0,1.95925,0.00051,407.836,0.110,0.0874,0.0017,139.999,45.000,31701.82709,1.96095,408.267,34.076,45.070,45.000,0.00,0.09,-272.76,-272.81,-8,525,-948,21.5,2.8,-26.4,21.7,2.9,-25.9,5.73,2.05,-12.1,27.0
2015-12-05 00:26:00,0.0,1.95893,0.00048,407.801,0.096,0.0874,0.0019,139.998,45.000,31701.82370,1.96061,408.226,34.099,45.070,45.000,0.00,0.09,-272.76,-272.79,-8,525,-948,21.5,2.8,-26.3,21.7,2.9,-25.9,5.73,2.23,-12.1,27.0
2015-12-05 00:27:00,0.0,1.95925,0.00046,407.831,0.046,0.0856,0.0017,139.997,45.000,31699.29512,1.96089,408.253,34.102,45.069,45.000,0.00,0.09,-272.75,-272.80,-9,525,-948,21.5,2.7,-26.5,21.7,2.8,-26.0,5.73,2.28,-12.1,26.9
2015-12-05 00:28:00,0.0,1.95854,0.00052,407.716,0.099,0.0876,0.0018,139.999,45.000,31700.94096,1.96026,408.149,34.068,45.069,45.000,0.00,0.09,-272.74,-272.82,-8,525,-947,21.5,2.8,-26.4,21.7,2.9,-25.9,5.73,2.11,-12.1,27.0
2015-12-05 00:29:00,0.0,1.95873,0.00052,407.797,0.072,0.0876,0.0011,139.999,45.000,31700.86898,1.96039,408.223,34.064,45.069,45.000,0.00,0.09,-272.75,-272.82,-8,525,-948,21.5,2.8,-26.4,21.7,2.8,-25.9,5.73,1.99,-12.1,27.0
2015-12-05 00:30:00,0.0,1.95898,0.00043,407.840,0.092,0.0872,0.0013,139.998,45.000,31701.81785,1.96065,408.269,34.075,45.070,45.000,0.00,0.09,-272.75,-272.81,-7,525,-948,21.5,2.8,-26.4,21.7,2.8,-25.9,5.73,2.08,-12.1,27.0
2015-12-05 00:31:00,0.0,1.95897,0.00031,407.839,0.085,0.0877,0.0022,140.001,45.000,31701.73526,1.96069,408.270,34.074,45.070,45.000,0.00,0.09,-272.76,-272.80,-8,525,-948,21.5,2.8,-26.3,21.7,2.8,-25.9,5.73,2.26,-12.1,27.0
2015-12-05 00:32:00,0.0,1.95914,0.00047,407.820,0.083,0.0877,0.0016,139.997,45.000,31700.67490,1.96080,408.249,34.065,45.069,45.000,0.00,0.09,-272.75,-272.82,-8,525,-948,21.5,2.8,-26.3,21.7,2.8,-25.9,5.73,2.26,-12.1,27.0
2015-12-05 00:33:00,0.0,1.95902,0.00042,407.873,0.038,0.0874,0.0013,139.997,45.000,31701.99465,1.96072,408.302,34.063,45.069,45.000,0.00,0.09,-272.74,-272.82,-9,525,-948,21.5,2.8,-26.3,21.7,2.9,-25.9,5.73,2.06,-12.1,27.0
2015-12-05 00:34:00,0.0,1.95894,0.00033,407.870,0.064,0.0873,0.0018,140.001,45.000,31705.11672,1.96064,408.298,34.077,45.070,45.000,0.00,0.09,-272.74,-272.81,-9,525,-948,21.5,2.8,-26.3,21.7,2.9,-25.8,5.73,1.99,-12.1,27.0
2015-12-05 00:35:00,0.0,1.95900,0.00029,407.936,0.048,0.0865,0.0017,139.999,45.000,31704.63438,1.96066,408.361,34.101,45.069,45.000,0.00,0.09,-272.77,-272.80,-8,525,-948,21.5,2.7,-26.5,21.7,2.9,-25.9,5.73,2.13,-12.1,27.0
2015-12-05 00:36:00,0.0,1.95885,0.00035,407.921,0.039,0.0867,0.0018,139.996,45.000,31705.04142,1.96053,408.347,34.117,45.069,45.000,0.00,0.09,-272.76,-272.80,-8,525,-948,21.6,2.7,-26.4,21.7,2.8,-26.0,5.73,2.29,-12.2,27.0
2015-12-05 00:37:00,0.0,1.95921,0.00044,407.959,0.035,0.0877,0.0011,139.997,45.000,31704.71474,1.96088,408.388,34.089,45.069,45.000,0.00,0.09,-272.74,-272.81,-7,525,-948,21.6,2.8,-26.3,21.7,2.9,-25.9,5.73,2.21,-12.1,27.0
2015-12-05 00:38:00,0.0,1.95910,0.00036,407.971,0.041,0.0872,0.0018,139.999,45.000,31706.52332,1.96079,408.399,34.073,45.069,45.000,0.00,0.09,-272.74,-272.82,-8,525,-948,21.5,2.8,-26.3,21.7,2.9,-25.9,5.73,2.02,-12.2,27.0
2015-12-05 00:39:00,0.0,1.95880,0.00046,407.878,0.066,0.0874,0.0017,139.999,45.000,31705.99070,1.96049,408.307,34.076,45.069,45.000,0.00,0.09,-272.75,-272.81,-8,525,-948,21.5,2.8,-26.4,21.7,2.8,-25.9,5.73,2.00,-12.1,27.0
2015-12-05 00:40:00,0.0,1.95890,0.00040,407.916,0.031,0.0871,0.0015,139.999,45.000,31704.01330,1.96060,408.344,34.065,45.069,45.000,0.00,0.09,-272.76,-272.79,-9,525,-948,21.5,2.8,-26.4,21.7,2.8,-25.9,5.73,2.20,-12.2,27.0
2015-12-05 00:41:00,0.0,1.95900,0.00033,407.961,0.048,0.0873,0.0013,140.000,45.000,31703.76901,1.96068,408.389,34.063,45.069,45.000,0.00,0.09,-272.76,-272.81,-9,525,-948,21.6,2.8,-26.3,21.7,2.9,-25.9,5.73,2.29,-12.2,27.0
2015-12-05 00:42:00,0.0,1.95909,0.00041,407.992,0.034,0.0867,0.0024,139.998,45.000,31703.88840,1.96074,408.417,34.063,45.070,45.000,0.00,0.09,-272.75,-272.81,-8,525,-948,21.6,2.7,-26.4,21.7,2.8,-25.9,5.73,2.14,-12.2,27.0
2015-12-05 00:43:00,0.0,1.95889,0.00026,408.054,0.040,0.0871,0.0018,139.998,45.000,31705.78840,1.96058,408.480,34.077,45.070,45.000,0.00,0.09,-272.74,-272.81,-8,525,-948,21.6,2.7,-26.4,21.7,2.8,-25.9,5.73,1.98,-12.2,27.1
2015-12-05 00:44:00,0.0,1.95846,0.00026,408.045,0.027,0.0871,0.0014,139.999,45.000,31708.02236,1.96014,408.474,34.085,45.070,45.000,0.00,0.09,-272.76,-272.80,-8,525,-947,21.6,2.8,-26.3,21.8,2.9,-25.8,5.73,2.07,-12.2,27.1
2015-12-05 00:45:00,0.0,1.95826,0.00037,408.055,0.039,0.0870,0.0015,140.000,45.000,31707.59953,1.95994,408.482,34.064,45.070,45.000,0.00,0.09,-272.77,-272.81,-8,525,-948,21.6,2.7,-26.4,21.7,2.8,-26.0,5.73,2.26,-11.2,27.1
2015-12-05 00:46:00,0.0,1.95827,0.00035,408.121,0.044,0.0854,0.0014,139.998,45.000,31706.70085,1.95994,408.538,34.063,45.070,45.000,0.00,0.09,-272.75,-272.81,-9,525,-948,21.5,2.7,-26.5,21.7,2.8,-26.0,5.73,2.26,-11.2,27.1
2015-12-05 00:47:00,0.0,1.95816,0.00037,408.156,0.040,0.0849,0.0015,140.001,45.000,31706.11433,1.95978,408.574,34.050,45.070,45.000,0.00,0.09,-272.74,-272.82,-9,525,-948,21.5,2.7,-26.6,21.7,2.8,-26.0,5.73,2.10,-11.3,27.0
2015-12-05 00:48:00,0.0,1.95783,0.00042,408.187,0.029,0.0848,0.0017,139.996,45.000,31704.58606,1.95949,408.604,34.014,45.070,45.000,0.00,0.09,-272.74,-272.82,-8,525,-947,21.5,2.7,-26.6,21.7,2.8,-26.1,5.73,1.98,-11.4,27.0
2015-12-05 00:49:00,0.0,1.95768,0.00042,408.197,0.031,0.0863,0.0015,139.997,45.000,31703.69062,1.95935,408.621,34.005,45.070,45.000,0.00,0.09,-272.76,-272.80,-8,525,-948,21.5,2.7,-26.6,21.7,2.8,-26.1,5.73,2.09,-11.5,27.0
2015-12-05 00:50:00,0.0,1.95794,0.00041,408.227,0.029,0.0858,0.0019,140.000,45.000,31704.62618,1.95958,408.647,34.032,45.070,45.000,0.00,0.09,-272.76,-272.79,-8,525,-948,21.5,2.7,-26.5,21.7,2.8,-26.1,5.73,2.28,-11.5,27.0
2015-12-05 00:51:00,0.0,1.95697,0.00048,408.144,0.077,0.0858,0.0017,139.999,45.000,31705.53547,1.95864,408.566,34.066,45.070,45.000,0.00,0.09,-272.74,-272.81,-8,525,-947,21.6,2.7,-26.4,21.7,2.8,-26.0,5.73,2.23,-11.6,27.1
2015-12-05 00:52:00,0.0,1.95654,0.00041,408.183,0.050,0.0867,0.0015,139.999,45.000,31708.07346,1.95825,408.611,34.105,45.070,45.000,0.00,0.09,-272.75,-272.82,-9,525,-948,21.6,2.7,-26.4,21.7,2.8,-26.0,5.73,2.02,-11.6,27.1
2015-12-05 00:53:00,0.0,1.95623,0.00058,408.102,0.076,0.0863,0.0020,140.000,45.000,31708.42597,1.95793,408.528,34.125,45.069,45.000,0.00,0.09,-272.75,-272.81,-9,525,-948,21.6,2.7,-26.5,21.7,2.8,-26.0,5.73,2.00,-11.7,27.1
2015-12-05 00:54:00,0.0,1.95617,0.00046,408.108,0.059,0.0866,0.0018,139.997,45.000,31707.80757,1.95780,408.529,34.125,45.069,45.000,0.00,0.09,-272.75,-272.79,-9,525,-947,21.6,2.7,-26.4,21.7,2.8,-26.0,5.73,2.20,-11.7,27.1
2015-12-05 00:55:00,0.0,1.95626,0.00041,408.148,0.057,0.0870,0.0015,140.000,45.000,31709.35387,1.95795,408.578,34.089,45.069,45.000,0.00,0.09,-272.75,-272.81,-8,525,-948,21.6,2.7,-26.4,21.7,2.8,-26.0,5.73,2.29,-11.7,27.1
2015-12-05 00:56:00,0.0,1.95629,0.00063,408.154,0.138,0.0860,0.0013,139.999,45.000,31708.78280,1.95793,408.577,34.066,45.069,45.000,0.00,0.09,-272.74,-272.82,-8,525,-948,21.6,2.7,-26.5,21.7,2.8,-26.0,5.73,2.15,-11.8,27.1
2015-12-05 00:57:00,0.0,1.95639,0.00055,408.151,0.106,0.0861,0.0014,139.999,45.000,31707.65505,1.95802,408.570,34.063,45.070,45.000,0.00,0.09,-272.74,-272.81,-8,525,-947,21.6,2.7,-26.5,21.7,2.8,-26.1,5.73,1.99,-11.8,27.1
2015-12-05 00:58:00,0.0,1.95680,0.00043,408.267,0.035,0.0868,0.0015,140.000,45.000,31709.41049,1.95849,408.694,34.067,45.070,45.000,0.00,0.09,-272.75,-272.80,-8,525,-947,21.6,2.7,-26.4,21.7,2.8,-26.0,5.73,2.04,-11.8,27.1
2015-12-05 00:59:00,0.0,1.95627,0.00067,408.159,0.136,0.0857,0.0016,140.000,45.000,31707.00451,1.95798,408.586,34.060,45.070,45.000,0.00,0.09,-272.76,-272.81,-9,525,-948,21.5,2.7,-26.6,21.7,2.8,-26.0,5.73,2.22,-11.9,27.1
2015-12-05 01:00:00,0.0,1.95561,0.00065,408.051,0.112,0.0866,0.0023,140.000,45.000,31708.66089,1.95724,408.472,34.051,45.070,45.000,0.00,0.09,-272.75,-272.81,-9,525,-947,21.5,2.7,-26.5,21.7,2.8,-26.1,5.73,2.28,-11.9,27.0
2015-12-05 01:01:00,0.0,1.95583,0.00065,408.083,0.084,0.0861,0.0013,139.999,45.000,31706.58247,1.95748,408.507,34.060,45.069,45.000,0.00,0.09,-272.74,-272.82,-8,525,-947,21.5,2.7,-26.6,21.7,2.8,-26.0,5.73,2.13,-11.9,27.0
2015-12-05 01:02:00,0.0,1.95554,0.00070,408.070,0.120,0.0857,0.0020,140.001,45.000,31707.35378,1.95726,408.493,34.046,45.069,45.000,0.00,0.09,-272.75,-272.82,-8,525,-947,21.5,2.7,-26.6,21.7,2.8,-26.1,5.73,1.99,-11.9,27.1
2015-12-05 01:03:00,0.0,1.95572,0.00082,408.104,0.157,0.0846,0.0014,139.997,45.000,31704.79043,1.95729,408.515,34.027,45.069,45.000,0.00,0.09,-272.76,-272.80,-8,525,-947,21.5,2.7,-26.6,21.7,2.8,-26.2,5.73,2.07,-12.0,27.0
2015-12-05 01:04:00,0.0,1.95589,0.00052,408.174,0.081,0.0851,0.0014,140.000,45.000,31705.90070,1.95754,408.594,34.049,45.069,45.000,0.00,0.09,-272.76,-272.79,-8,525,-948,21.5,2.7,-26.6,21.7,2.8,-26.1,5.73,2.26,-12.0,27.1
2015-12-05 01:05:00,0.0,1.95644,0.00036,408.314,0.077,0.0843,0.0014,139.997,45.000,31705.67576,1.95805,408.724,34.058,45.070,45.000,0.00,0.09,-272.75,-272.81,-8,525,-947,21.6,2.7,-26.6,21.7,2.8,-26.2,5.73,2.25,-12.0,27.1
2015-12-05 01:06:00,0.0,1.95591,0.00056,408.286,0.086,0.0844,0.0015,139.998,45.000,31708.31168,1.95757,408.703,34.066,45.070,45.000,0.00,0.09,-272.74,-272.82,-9,525,-948,21.6,2.7,-26.8,21.7,2.8,-26.2,5.73,2.04,-12.0,27.1
2015-12-05 01:07:00,0.0,1.95538,0.00038,408.212,0.038,0.0841,0.0012,139.997,45.000,31708.87281,1.95701,408.628,34.119,45.070,45.000,0.00,0.09,-272.75,-272.80,-9,525,-948,21.6,2.7,-26.7,21.7,2.8,-26.2,5.73,2.00,-12.0,27.1
2015-12-05 01:08:00,0.0,1.95509,0.00043,408.128,0.037,0.0850,0.0025,139.999,45.000,31709.46576,1.95671,408.546,34.129,45.070,45.000,0.00,0.09,-272.76,-272.80,-8,525,-947,21.6,2.7,-26.6,21.8,2.8,-26.2,5.73,2.20,-12.0,27.1
2015-12-05 01:09:00,0.0,1.95461,0.00049,408.127,0.048,0.0848,0.0013,139.998,45.000,31711.53765,1.95628,408.542,34.140,45.069,45.000,0.00,0.09,-272.75,-272.81,-8,525,-948,21.6,2.7,-26.7,21.8,2.8,-26.2,5.73,2.29,-12.0,27.1
2015-12-05 01:10:00,0.0,1.95465,0.00039,408.174,0.047,0.0828,0.0018,139.998,45.000,31710.83917,1.95623,408.581,34.144,45.069,45.000,0.00,0.09,-272.74,-272.81,-8,525,-948,21.6,2.7,-26.8,21.7,2.7,-26.3,5.73,2.15,-12.0,27.1
2015-12-05 01:11:00,0.0,1.95495,0.00050,408.207,0.038,0.0837,0.0018,139.999,45.000,31708.44455,1.95655,408.617,34.132,45.069,45.000,0.00,0.09,-272.74,-272.81,-8,525,-948,21.5,2.7,-26.8,21.7,2.7,-26.3,5.73,2.00,-12.1,27.0
2015-12-05 01:12:00,0.0,1.95489,0.00044,408.213,0.031,0.0849,0.0015,139.999,45.000,31708.04621,1.95654,408.630,34.129,45.069,45.000,0.00,0.09,-272.76,-272.81,-9,525,-948,21.5,2.7,-26.7,21.7,2.8,-26.2,5.73,2.03,-12.1,27.0
2015-12-05 01:13:00,0.0,1.95512,0.00029,408.183,0.038,0.0840,0.0017,139.997,45.000,31707.84587,1.95674,408.595,34.120,45.069,45.000,0.00,0.09,-272.76,-272.80,-9,525,-948,21.6,2.7,-26.6,21.7,2.8,-26.2,5.73,2.22,-12.1,27.1
2015-12-05 01:14:00,0.0,1.95527,0.00040,408.249,0.032,0.0839,0.0020,139.999,45.000,31709.62096,1.95686,408.662,34.096,45.069,45.000,0.00,0.09,-272.75,-272.80,-8,525,-948,21.6,2.7,-26.6,21.7,2.8,-26.2,5.73,2.29,-12.1,27.1
2015-12-05 01:15:00,0.0,1.95523,0.00047,408.261,0.050,0.0846,0.0014,139.999,45.000,31709.64253,1.95687,408.676,34.108,45.070,45.000,0.00,0.09,-272.74,-272.82,-8,525,-948,21.5,2.7,-26.6,21.7,2.8,-26.2,5.73,2.11,-12.1,27.1
2015-12-05 01:16:00,0.0,1.95530,0.00035,408.255,0.036,0.0845,0.0019,139.998,45.000,31710.57146,1.95690,408.670,34.121,45.070,45.000,0.00,0.09,-272.75,-272.82,-8,525,-948,21.6,2.7,-26.7,21.7,2.8,-26.2,5.73,1.98,-12.1,27.1
2015-12-05 01:17:00,0.0,1.95568,0.00052,408.288,0.059,0.0836,0.0017,139.998,45.000,31709.49575,1.95731,408.699,34.125,45.070,45.000,0.00,0.09,-272.75,-272.79,-8,525,-948,21.6,2.7,-26.8,21.8,2.7,-26.3,5.73,2.10,-12.1,27.1
2015-12-05 01:18:00,0.0,1.95563,0.00038,408.294,0.035,0.0829,0.0016,139.997,45.000,31709.06321,1.95720,408.700,34.124,45.069,45.000,0.00,0.09,-272.76,-272.80,-8,525,-948,21.6,2.6,-26.9,21.8,2.7,-26.3,5.73,2.27,-12.1,27.1
2015-12-05 01:19:00,0.0,1.95551,0.00041,408.294,0.033,0.0845,0.0016,139.996,45.000,31711.28315,1.95718,408.710,34.122,45.069,45.000,0.00,0.09,-272.75,-272.81,-9,525,-948,21.6,2.7,-26.7,21.8,2.7,-26.3,5.73,2.24,-12.1,27.1
2015-12-05 01:20:00,0.0,1.95501,0.00036,408.202,0.059,0.0839,0.0014,139.998,45.000,31710.31313,1.95662,408.615,34.119,45.069,45.000,0.00,0.09,-272.74,-272.81,-9,525,-948,21.6,2.7,-26.7,21.8,2.7,-26.3,5.73,2.06,-12.1,27.1
2015-12-05 01:21:00,0.0,1.95490,0.00075,408.160,0.138,0.0845,0.0020,139.999,45.000,31709.32117,1.95655,408.576,34.126,45.069,45.000,0.00,0.09,-272.74,-272.80,-8,526,-948,21.6,2.7,-26.7,21.8,2.8,-26.2,5.73,1.98,-12.2,27.2
2015-12-05 01:22:00,0.0,1.95536,0.00049,408.226,0.083,0.0833,0.0015,139.998,45.000,31708.95459,1.95693,408.633,34.128,45.069,45.000,0.00,0.09,-272.76,-272.80,-8,525,-948,21.6,2.6,-26.8,21.8,2.7,-26.3,5.73,2.16,-12.2,27.2
2015-12-05 01:23:00,0.0,1.95559,0.00044,408.302,0.091,0.0824,0.0015,139.997,45.000,31710.45294,1.95717,408.708,34.127,45.069,45.000,0.00,0.09,-272.77,-272.81,-8,525,-948,21.6,2.6,-26.9,21.8,2.7,-26.4,5.73,2.29,-12.2,27.2
2015-12-05 01:24:00,0.0,1.95547,0.00045,408.210,0.067,0.0832,0.0012,140.000,45.000,31710.58910,1.95706,408.616,34.134,45.069,45.000,0.00,0.09,-272.74,-272.82,-8,525,-948,21.6,2.6,-26.8,21.8,2.7,-26.4,5.73,2.18,-12.2,27.2
2015-12-05 01:25:00,0.0,1.95586,0.00048,408.305,0.033,0.0833,0.0019,139.998,45.000,31711.89500,1.95748,408.716,34.158,45.069,45.000,0.00,0.09,-272.74,-272.82,-9,525,-948,21.6,2.6,-26.8,21.8,2.8,-26.2,5.73,2.00,-12.2,27.2
2015-12-05 01:26:00,0.0,1.95636,0.00032,408.329,0.031,0.0841,0.0023,140.000,45.000,31711.58646,1.95794,408.742,34.143,45.070,45.000,0.00,0.09,-272.75,-272.81,-9,526,-948,21.6,2.6,-26.8,21.8,2.7,-26.3,5.73,2.03,-12.2,27.2
2015-12-05 01:27:00,0.0,1.95575,0.00049,408.328,0.072,0.0837,0.0020,139.998,45.000,31712.92093,1.95742,408.740,34.133,45.069,45.000,0.00,0.09,-272.76,-272.79,-8,525,-947,21.6,2.6,-26.8,21.8,2.7,-26.3,5.73,2.23,-12.2,27.2
2015-12-05 01:28:00,0.0,1.95534,0.00052,408.224,0.065,0.0838,0.0017,139.999,45.000,31714.74526,1.95697,408.635,34.127,45.070,45.000,0.00,0.09,-272.75,-272.80,-7,525,-947,21.6,2.7,-26.7,21.8,2.7,-26.3,5.73,2.27,-12.2,27.2
2015-12-05 01:29:00,0.0,1.95510,0.00040,408.208,0.038,0.0847,0.0014,139.997,45.000,31712.10360,1.95671,408.625,34.140,45.070,45.000,0.00,0.09,-272.74,-272.82,-8,526,-946,21.6,2.7,-26.7,21.8,2.7,-26.3,5.73,2.11,-12.2,27.2
2015-12-05 01:30:00,0.0,1.95566,0.00027,408.277,0.034,0.0846,0.0017,139.997,45.000,31713.16957,1.95728,408.692,34.149,45.070,45.000,0.00,0.09,-272.75,-272.81,-8,527,-947,21.6,2.7,-26.6,21.8,2.7,-26.3,5.73,1.99,-12.2,27.2
2015-12-05 01:31:00,0.0,1.95521,0.00044,408.249,0.056,0.0848,0.0018,139.998,45.000,31714.25408,1.95683,408.665,34.134,45.069,45.000,0.00,0.09,-272.75,-272.80,-8,524,-945,21.6,2.7,-26.5,21.8,2.8,-26.1,5.73,2.07,-12.2,27.2
2015-12-05 01:32:00,0.0,1.95590,0.00041,408.318,0.028,0.0840,0.0015,139.999,45.000,31711.79817,1.95752,408.730,34.125,45.069,45.000,0.00,0.09,-272.77,-272.80,-10,527,-947,21.6,2.7,-26.7,21.8,2.8,-26.2,5.73,2.25,-12.2,27.2
2015-12-05 01:33:00,0.0,1.95485,0.00051,408.199,0.077,0.0837,0.0020,140.000,45.000,31711.25820,1.95650,408.613,34.125,45.069,45.000,0.00,0.09,-272.75,-272.81,-7,525,-948,21.6,2.7,-26.8,21.8,2.7,-26.3,5.73,2.27,-12.2,27.2
2015-12-05 01:34:00,0.0,1.95383,0.00064,407.965,0.116,0.0828,0.0019,139.998,45.000,31709.89078,1.95544,408.375,34.125,45.069,45.000,0.00,0.09,-272.73,-272.81,-8,531,-947,21.6,2.7,-26.7,21.8,2.7,-26.3,5.73,2.09,-12.2,27.2
2015-12-05 01:35:00,0.0,1.95499,0.00048,408.194,0.064,0.0840,0.0015,140.001,45.000,31711.43749,1.95658,408.604,34.125,45.069,45.000,0.00,0.09,-272.74,-272.81,-8,530,-947,21.6,2.7,-26.7,21.8,2.7,-26.3,5.73,1.98,-12.2,27.2
2015-12-05 01:36:00,0.0,1.95523,0.00038,408.246,0.050,0.0835,0.0013,139.997,45.000,31710.69827,1.95682,408.654,34.122,45.069,45.000,0.00,0.09,-272.76,-272.80,-8,525,-948,21.6,2.7,-26.7,21.8,2.7,-26.3,5.73,2.10,-12.2,27.2
2015-12-05 01:37:00,0.0,1.95578,0.00042,408.346,0.051,0.0832,0.0016,139.998,45.000,31709.32032,1.95737,408.753,34.088,45.069,45.000,0.00,0.09,-272.75,-272.80,-9,527,-948,21.6,2.7,-26.7,21.8,2.7,-26.3,5.73,2.27,-12.2,27.2
2015-12-05 01:38:00,0.0,1.95635,0.00039,408.443,0.052,0.0836,0.0019,140.000,45.000,31709.41916,1.95795,408.853,34.068,45.069,45.000,0.00,0.09,-272.74,-272.81,-9,525,-948,21.6,2.6,-26.8,21.8,2.7,-26.3,5.73,2.25,-12.3,27.2
2015-12-05 01:39:00,0.0,1.95679,0.00041,408.519,0.040,0.0834,0.0017,139.999,45.000,31710.85516,1.95843,408.930,34.064,45.070,45.000,0.00,0.09,-272.74,-272.83,-9,526,-948,21.6,2.6,-26.9,21.8,2.7,-26.4,5.73,2.05,-12.3,27.2
2015-12-05 01:40:00,0.0,1.95656,0.00039,408.497,0.051,0.0835,0.0016,140.000,45.000,31711.05088,1.95815,408.907,34.063,45.070,45.000,0.00,0.09,-272.74,-272.81,-9,526,-948,21.6,2.6,-26.8,21.8,2.7,-26.4,5.73,1.99,-12.3,27.2
2015-12-05 01:41:00,0.0,1.95672,0.00050,408.515,0.041,0.0818,0.0020,140.000,45.000,31712.40692,1.95824,408.915,34.061,45.070,45.000,0.00,0.09,-272.75,-272.80,-8,525,-947,21.6,2.6,-26.9,21.8,2.7,-26.4,5.73,2.16,-12.3,27.2
2015-12-05 01:42:00,0.0,1.95679,0.00052,408.530,0.055,0.0816,0.0023,139.998,45.000,31712.52578,1.95840,408.932,34.081,45.070,45.000,0.00,0.09,-272.75,-272.81,-8,526,-948,21.7,2.6,-26.9,21.9,2.7,-26.5,5.73,2.30,-12.3,27.3
2015-12-05 01:43:00,0.0,1.95706,0.00045,408.578,0.028,0.0822,0.0011,139.997,45.000,31713.22962,1.95860,408.981,34.117,45.070,45.000,0.00,0.09,-272.74,-272.82,-8,525,-948,21.7,2.6,-26.9,21.9,2.7,-26.5,5.73,2.17,-12.3,27.3
2015-12-05 01:44:00,0.0,1.95714,0.00034,408.601,0.033,0.0814,0.0017,139.999,45.000,31714.55157,1.95875,409.002,34.122,45.070,45.000,0.00,0.09,-272.74,-272.81,-9,525,-948,21.7,2.6,-27.0,21.9,2.7,-26.5,5.73,1.98,-12.3,27.3
2015-12-05 01:45:00,0.0,1.95689,0.00044,408.582,0.048,0.0813,0.0023,139.999,45.000,31716.70444,1.95845,408.980,34.125,45.070,45.000,0.00,0.09,-272.75,-272.80,-9,526,-948,21.7,2.6,-27.0,21.9,2.7,-26.6,5.73,2.06,-12.3,27.3